| time (UTC) | temp C | wind direction | speed KPH | gust KPH | rain 1hr cm | rain 24hr cm | rain mn cm | humidity % | barometer mb |
| 20260902232911 | 24 | 338 | 0.0 | 6.4 | 0.00 | 0.00 | 0.00 | 29 | 999.8 |
| 20260902230649 | 26 | 14 | 4.8 | 25.7 | 0.00 | 0.00 | 0.00 | 23 | 999.6 |
| 20260902224523 | 29 | 68 | 8.0 | 22.5 | 0.00 | 0.00 | 0.00 | 20 | 999.2 |
| 20260902223531 | 29 | 7 | 9.7 | 33.8 | 0.00 | 0.00 | 0.00 | 20 | 999.0 |
| 20260902222547 | 29 | 57 | 8.0 | 33.8 | 0.00 | 0.00 | 0.00 | 20 | 998.9 |
| 20260902221549 | 28 | 348 | 8.0 | 25.7 | 0.00 | 0.00 | 0.00 | 19 | 999.0 |
| 20260902215423 | 30 | 107 | 8.0 | 22.5 | 0.00 | 0.00 | 0.00 | 18 | 998.9 |
| 20260902214349 | 30 | 120 | 9.7 | 20.9 | 0.00 | 0.00 | 0.00 | 22 | 998.8 |
| 20260902213346 | 30 | 86 | 3.2 | 14.5 | 0.00 | 0.00 | 0.00 | 26 | 999.1 |
| 20260902212405 | 29 | 112 | 6.4 | 35.4 | 0.00 | 0.00 | 0.00 | 27 | 999.1 |
| 20260902211400 | 28 | 59 | 6.4 | 24.1 | 0.00 | 0.00 | 0.00 | 26 | 999.3 |
| 20260902210341 | 27 | 11 | 3.2 | 12.9 | 0.00 | 0.00 | 0.00 | 22 | 999.5 |
| 20260902205343 | 27 | 337 | 9.7 | 35.4 | 0.00 | 0.00 | 0.00 | 23 | 999.7 |
| 20260902204400 | 28 | 345 | 8.0 | 24.1 | 0.00 | 0.00 | 0.00 | 26 | 1000.0 |
| 20260902203418 | 29 | 93 | 6.4 | 22.5 | 0.00 | 0.00 | 0.00 | 26 | 999.9 |
| 20260902201306 | 29 | 92 | 4.8 | 22.5 | 0.00 | 0.00 | 0.00 | 29 | 1000.0 |
| 20260902195118 | 29 | 161 | 8.0 | 19.3 | 0.00 | 0.00 | 0.00 | 29 | 1000.3 |
| 20260902194049 | 29 | 177 | 4.8 | 19.3 | 0.00 | 0.00 | 0.00 | 29 | 1000.4 |
| 20260902193031 | 28 | 183 | 4.8 | 14.5 | 0.00 | 0.00 | 0.00 | 30 | 1000.5 |
| 20260902192017 | 28 | 185 | 4.8 | 14.5 | 0.00 | 0.00 | 0.00 | 28 | 1000.6 |
| 20260902191006 | 26 | 193 | 0.0 | 8.0 | 0.00 | 0.00 | 0.00 | 36 | 1000.6 |
| 20260902190021 | 26 | 191 | 0.0 | 4.8 | 0.00 | 0.00 | 0.00 | 40 | 1000.8 |
| 20260902184951 | 26 | 185 | 0.0 | 0.0 | 0.00 | 0.00 | 0.00 | 41 | 1001.1 |
| 20260902182829 | 26 | 323 | 0.0 | 0.0 | 0.00 | 0.00 | 0.00 | 35 | 1001.4 |
| 20260902175508 | 26 | 179 | 0.0 | 6.4 | 0.00 | 0.00 | 0.00 | 39 | 1001.9 |
| 20260902174528 | 25 | 178 | 1.6 | 8.0 | 0.00 | 0.00 | 0.00 | 36 | 1001.9 |
| 20260902172415 | 25 | 193 | 0.0 | 4.8 | 0.00 | 0.00 | 0.00 | 40 | 1002.0 |
| 20260902171415 | 23 | 184 | 0.0 | 1.6 | 0.00 | 0.00 | 0.00 | 41 | 1002.2 |
| 20260902170353 | 22 | 183 | 0.0 | 1.6 | 0.00 | 0.00 | 0.00 | 45 | 1002.3 |
| 20260902165353 | 22 | 108 | 0.0 | 11.3 | 0.00 | 0.00 | 0.00 | 50 | 1002.5 |
| 20260902164336 | 21 | 4 | 0.0 | 1.6 | 0.00 | 0.00 | 0.00 | 50 | 1002.5 |
| 20260902163303 | 21 | 61 | 0.0 | 1.6 | 0.00 | 0.00 | 0.00 | 54 | 1002.7 |
| 20260902162306 | 20 | 112 | 0.0 | 4.8 | 0.00 | 0.00 | 0.00 | 56 | 1002.9 |
| 20260902161319 | 20 | 45 | 0.0 | 0.0 | 0.00 | 0.00 | 0.00 | 55 | 1002.9 |
| 20260902160339 | 19 | 359 | 0.0 | 0.0 | 0.00 | 0.00 | 0.00 | 62 | 1003.1 |
| 20260902152006 | 16 | 191 | 3.2 | 8.0 | 0.00 | 0.00 | 0.00 | 68 | 1003.6 |
| 20260902151007 | 15 | 192 | 3.2 | 8.0 | 0.00 | 0.00 | 0.00 | 72 | 1003.7 |
| 20260902144808 | 14 | 193 | 0.0 | 1.6 | 0.00 | 0.00 | 0.00 | 74 | 1004.2 |
| 20260902143830 | 13 | 193 | 0.0 | 4.8 | 0.00 | 0.00 | 0.00 | 75 | 1004.3 |
| 20260902142835 | 13 | 193 | 0.0 | 0.0 | 0.00 | 0.00 | 0.00 | 74 | 1004.3 |
| 20260902140758 | 13 | 193 | 1.6 | 6.4 | 0.00 | 0.00 | 0.00 | 73 | 1004.2 |
| 20260902135803 | 12 | 193 | 0.0 | 0.0 | 0.00 | 0.00 | 0.00 | 76 | 1004.1 |
| 20260902134752 | 11 | 193 | 0.0 | 3.2 | 0.00 | 0.00 | 0.00 | 78 | 1004.1 |
| 20260902133753 | 11 | 193 | 0.0 | 0.0 | 0.00 | 0.00 | 0.00 | 79 | 1004.3 |
| 20260902132744 | 11 | 193 | 0.0 | 3.2 | 0.00 | 0.00 | 0.00 | 80 | 1004.3 |
| 20260902131759 | 10 | 5 | 0.0 | 0.0 | 0.00 | 0.00 | 0.00 | 80 | 1004.2 |
| 20260902130735 | 10 | 14 | 0.0 | 0.0 | 0.00 | 0.00 | 0.00 | 80 | 1004.4 |
| 20260902125741 | 10 | 14 | 0.0 | 0.0 | 0.00 | 0.00 | 0.00 | 80 | 1004.5 |
| 20260902124746 | 10 | 18 | 0.0 | 0.0 | 0.00 | 0.00 | 0.00 | 80 | 1004.6 |
| 20260902123740 | 10 | 20 | 0.0 | 0.0 | 0.00 | 0.00 | 0.00 | 80 | 1004.7 |
| 20260902122747 | 10 | 18 | 0.0 | 0.0 | 0.00 | 0.00 | 0.00 | 80 | 1004.6 |
| 20260902121731 | 10 | 22 | 0.0 | 0.0 | 0.00 | 0.00 | 0.00 | 80 | 1004.5 |
| 20260902120755 | 10 | 20 | 0.0 | 0.0 | 0.00 | 0.00 | 0.00 | 81 | 1004.7 |
| 20260902115814 | 10 | 20 | 0.0 | 4.8 | 0.00 | 0.00 | 0.00 | 81 | 1005.0 |
| 20260902114813 | 10 | 21 | 0.0 | 0.0 | 0.00 | 0.00 | 0.00 | 81 | 1004.9 |
| 20260902113755 | 10 | 18 | 0.0 | 3.2 | 0.00 | 0.00 | 0.00 | 80 | 1005.1 |
| 20260902112728 | 10 | 22 | 0.0 | 0.0 | 0.00 | 0.00 | 0.00 | 80 | 1005.1 |
| 20260902111733 | 10 | 15 | 0.0 | 0.0 | 0.00 | 0.00 | 0.00 | 79 | 1005.2 |
| 20260902110739 | 10 | 18 | 0.0 | 0.0 | 0.00 | 0.00 | 0.00 | 79 | 1005.3 |
| 20260902105734 | 10 | 11 | 0.0 | 0.0 | 0.00 | 0.00 | 0.00 | 78 | 1005.4 |
| 20260902104738 | 10 | 5 | 0.0 | 3.2 | 0.00 | 0.00 | 0.00 | 77 | 1005.4 |
| 20260902101438 | 11 | 6 | 0.0 | 0.0 | 0.00 | 0.00 | 0.00 | 78 | 1005.2 |
| 20260902100447 | 11 | 4 | 0.0 | 0.0 | 0.00 | 0.00 | 0.00 | 78 | 1005.3 |
| 20260902093246 | 11 | 0 | 0.0 | 0.0 | 0.00 | 0.00 | 0.00 | 75 | 1004.9 |
| 20260902092241 | 11 | 356 | 0.0 | 0.0 | 0.00 | 0.00 | 0.00 | 75 | 1004.8 |
| 20260902085048 | 12 | 353 | 0.0 | 3.2 | 0.00 | 0.00 | 0.00 | 72 | 1004.6 |
| 20260902084052 | 12 | 355 | 0.0 | 3.2 | 0.00 | 0.00 | 0.00 | 71 | 1004.7 |
| 20260902083112 | 12 | 353 | 0.0 | 0.0 | 0.00 | 0.00 | 0.00 | 72 | 1004.6 |
| 20260902082103 | 13 | 354 | 0.0 | 0.0 | 0.00 | 0.00 | 0.00 | 71 | 1004.5 |
| 20260902081123 | 13 | 351 | 0.0 | 0.0 | 0.00 | 0.00 | 0.00 | 71 | 1004.6 |
| 20260902075033 | 13 | 351 | 0.0 | 0.0 | 0.00 | 0.00 | 0.00 | 69 | 1004.8 |
| 20260902074033 | 13 | 351 | 0.0 | 0.0 | 0.00 | 0.00 | 0.00 | 69 | 1004.9 |
| 20260902073031 | 14 | 352 | 0.0 | 0.0 | 0.00 | 0.00 | 0.00 | 68 | 1004.9 |
| 20260902070912 | 15 | 346 | 0.0 | 0.0 | 0.00 | 0.00 | 0.00 | 65 | 1004.8 |
| 20260902065931 | 15 | 345 | 0.0 | 0.0 | 0.00 | 0.00 | 0.00 | 64 | 1004.8 |
| 20260902064914 | 15 | 344 | 0.0 | 0.0 | 0.00 | 0.00 | 0.00 | 64 | 1004.7 |
| 20260902063840 | 16 | 342 | 0.0 | 0.0 | 0.00 | 0.00 | 0.00 | 62 | 1004.7 |
| 20260902062841 | 16 | 341 | 0.0 | 0.0 | 0.00 | 0.00 | 0.00 | 61 | 1004.7 |
| 20260902061829 | 16 | 340 | 0.0 | 0.0 | 0.00 | 0.00 | 0.00 | 59 | 1004.9 |
| 20260902060842 | 17 | 340 | 0.0 | 0.0 | 0.00 | 0.00 | 0.00 | 57 | 1005.0 |
| 20260902055855 | 17 | 340 | 0.0 | 0.0 | 0.00 | 0.00 | 0.00 | 57 | 1005.1 |
| 20260902053750 | 18 | 340 | 0.0 | 0.0 | 0.00 | 0.00 | 0.00 | 54 | 1005.2 |
| 20260902052737 | 18 | 339 | 0.0 | 0.0 | 0.00 | 0.00 | 0.00 | 52 | 1005.2 |
| 20260902051750 | 19 | 339 | 0.0 | 0.0 | 0.00 | 0.00 | 0.00 | 49 | 1005.2 |
| 20260902050806 | 20 | 340 | 0.0 | 0.0 | 0.00 | 0.00 | 0.00 | 48 | 1005.3 |
| 20260902045757 | 20 | 339 | 0.0 | 3.2 | 0.00 | 0.00 | 0.00 | 45 | 1005.4 |
| 20260902044807 | 20 | 340 | 1.6 | 6.4 | 0.00 | 0.00 | 0.00 | 45 | 1005.4 |
| 20260902043754 | 20 | 339 | 1.6 | 6.4 | 0.00 | 0.00 | 0.00 | 45 | 1005.6 |
| 20260902042802 | 20 | 339 | 1.6 | 11.3 | 0.00 | 0.00 | 0.00 | 45 | 1005.6 |
| 20260902041759 | 20 | 340 | 1.6 | 11.3 | 0.00 | 0.00 | 0.00 | 45 | 1005.6 |
| 20260902040739 | 20 | 339 | 0.0 | 0.0 | 0.00 | 0.00 | 0.00 | 46 | 1005.7 |
| 20260902035755 | 20 | 339 | 0.0 | 4.8 | 0.00 | 0.00 | 0.00 | 46 | 1005.6 |
| 20260902034728 | 20 | 339 | 0.0 | 6.4 | 0.00 | 0.00 | 0.00 | 45 | 1005.6 |
| 20260902033727 | 20 | 339 | 1.6 | 6.4 | 0.00 | 0.00 | 0.00 | 45 | 1005.5 |
| 20260902032656 | 20 | 339 | 0.0 | 0.0 | 0.00 | 0.00 | 0.00 | 46 | 1005.6 |
| 20260902031644 | 20 | 339 | 0.0 | 6.4 | 0.00 | 0.00 | 0.00 | 44 | 1005.5 |
| 20260902030646 | 21 | 338 | 0.0 | 6.4 | 0.00 | 0.00 | 0.00 | 45 | 1005.5 |
| 20260902025628 | 21 | 338 | 0.0 | 4.8 | 0.00 | 0.00 | 0.00 | 44 | 1005.4 |
| 20260902022424 | 21 | 338 | 0.0 | 6.4 | 0.00 | 0.00 | 0.00 | 43 | 1005.3 |
| 20260902021443 | 22 | 338 | 0.0 | 6.4 | 0.00 | 0.00 | 0.00 | 41 | 1005.2 |
| 20260902020428 | 22 | 338 | 0.0 | 0.0 | 0.00 | 0.00 | 0.00 | 39 | 1005.1 |
| 20260902015443 | 22 | 338 | 0.0 | 0.0 | 0.00 | 0.00 | 0.00 | 38 | 1005.0 |
| 20260902014423 | 22 | 338 | 0.0 | 0.0 | 0.00 | 0.00 | 0.00 | 37 | 1005.0 |
| 20260902013358 | 23 | 338 | 0.0 | 3.2 | 0.00 | 0.00 | 0.00 | 37 | 1005.0 |
| 20260902012340 | 23 | 338 | 0.0 | 3.2 | 0.00 | 0.00 | 0.00 | 37 | 1005.1 |
| 20260902011308 | 23 | 338 | 1.6 | 3.2 | 0.00 | 0.00 | 0.00 | 36 | 1005.1 |
| 20260902010244 | 24 | 338 | 0.0 | 3.2 | 0.00 | 0.00 | 0.00 | 35 | 1005.1 |
| 20260902005305 | 25 | 340 | 0.0 | 3.2 | 0.00 | 0.00 | 0.00 | 34 | 1005.0 |
| 20260902004242 | 25 | 342 | 0.0 | 0.0 | 0.00 | 0.00 | 0.00 | 33 | 1005.0 |
| 20260902003218 | 25 | 341 | 0.0 | 0.0 | 0.00 | 0.00 | 0.00 | 34 | 1005.0 |
| 20260902002229 | 25 | 340 | 0.0 | 0.0 | 0.00 | 0.00 | 0.00 | 34 | 1005.1 |
| 20260902001212 | 24 | 340 | 0.0 | 0.0 | 0.00 | 0.00 | 0.00 | 35 | 1005.0 |
| 20260902000204 | 24 | 341 | 0.0 | 0.0 | 0.00 | 0.00 | 0.00 | 34 | 1004.9 |
| 20260901235222 | 24 | 342 | 0.0 | 0.0 | 0.00 | 0.00 | 0.00 | 35 | 1005.0 |
| 20260901234210 | 24 | 342 | 0.0 | 0.0 | 0.00 | 0.00 | 0.00 | 36 | 1005.1 |